Find Starlink 2683

NORAD ID: 48462 Int'l Des: 2021-040 Owner: SPXS Country: US Constellation: starlink operational
LEOCIRCULARSTARLINK_TYPE

リアルタイム位置

3D地球を読み込み中...

Starlink 2683について

説明を読み込み中...

次回通過

Passes for default location (London). Set your location on the main map for personalized predictions.

高度履歴

Loading altitude history...

軌道要素

1 48462U 21040AL 26126.80396666 .00016841 00000-0 55270-3 0 9994
2 48462 53.1605 280.8603 0000680 109.2266 250.8809 15.31729806275405
Epoch: May 6, 2026 • Age: 8 hours

現在のステータス

高度 474.9 km
速度 7.63 km/s
衛星直下点 -14.81°S, 2.65°W
打ち上げ日 May 9, 2021
運用期間 4.9 years
タイプ internet

技術仕様

分類 Payload
質量 260.00 kg
乾燥質量 248.00 kg
総質量 260.00 kg
長さ 0.20 m
直径 2.80 m
スパン 9.00 m
形状 Box + pan
製造者 SPXS
バスタイプ Starlink
フェーズステータス In Orbit
所有者/国 SPXS/US

Most Searched